Boulder Muni, Boulder, CO, CO

5:01 PM MST on December 14, 2019 (GMT -0700)
Boulder Muni, Boulder, CO

Weather History for KBDU - November, 2019

Change the Weather History Date:

Friday, November 22, 2019

  Actual Average Record
Temperature  
Mean Temperature 31 °F -  
Max Temperature 34 °F - 70 °F (2017)
Min Temperature 27 °F - 19 °F (2013)
Degree Days  
Heating Degree Days 34    
Month to date heating degree days 501  
Cooling Degree Days 0    
Month to date cooling degree days 0  
Moisture  
Dew Point 29 °F    
Average Humidity 93    
Maximum Humidity 100    
Minimum Humidity 85    
Precipitation  
Precipitation 0.00 in - 0.13 in (2016)
Snow  
Snow 0.00 in - - ()
Snow Depth 0.00 in    
Sea Level Pressure  
Sea Level Pressure 30.02 in    
Wind  
Wind Speed 0 mph (NNE)    
Max Wind Speed 5 mph    
Max Gust Speed -    
Visibility 7 miles    
Events Snow    
T = Trace of Precipitation, MM = Missing Value Source: NWS Daily Summary

Daily Weather History Graph

Daily Weather History Graph

Search for Another Location

Airport or City:

Astronomy

Nov. 22, 2019 Rise Set
Actual Time 6:53 AM MST 4:39 PM MST
Civil Twilight 6:24 AM MST 5:09 PM MST
Nautical Twilight 5:51 AM MST 5:42 PM MST
Astronomical Twilight 5:18 AM MST 6:14 PM MST
Moon 2:02 AM MST (11/22) 2:41 PM MST (11/22)
Length of Visible Light 10h 44m
Length of Day
9h 45m
Waning Crescent, 19% of the Moon is Illuminated
Nov 22
Waning Crescent
Nov 26
New
Dec 3
First Quarter
Dec 11
Full
Dec 18
Last Quarter

Hourly Weather History & Observations

Time (MST) Temp. Windchill Dew Point Humidity Pressure Visibility Wind Dir Wind Speed Gust Speed Precip Events Conditions
12:12 AM 28.4 °F - 28.4 °F 100% 30.10 in 5.0 mi Calm Calm - N/A Snow Light Snow
12:30 AM 28.4 °F - 28.4 °F 100% 30.09 in 3.0 mi Calm Calm - N/A Snow Light Snow
12:48 AM 28.4 °F - 28.4 °F 100% 30.09 in 2.5 mi Calm Calm - N/A Snow Light Snow
1:48 AM 28.4 °F - 28.4 °F 100% 30.09 in 5.0 mi Calm Calm - N/A Snow Light Snow
2:12 AM 28.4 °F - 28.4 °F 100% 30.09 in 2.5 mi Calm Calm - N/A Snow Light Snow
2:30 AM 28.4 °F - 28.4 °F 100% 30.08 in 1.8 mi Calm Calm - N/A Snow Light Snow
2:48 AM 28.4 °F - 28.4 °F 100% 30.07 in 1.8 mi Calm Calm - N/A Snow Light Snow
3:11 AM 28.4 °F - 28.4 °F 100% 30.07 in 2.5 mi Calm Calm - N/A Snow Light Snow
3:29 AM 28.4 °F - 28.4 °F 100% 30.06 in 2.0 mi Calm Calm - N/A Snow Light Snow
3:53 AM 28.4 °F - 28.4 °F 100% 30.06 in 2.5 mi Calm Calm - N/A Snow Light Snow
4:12 AM 28.4 °F - 28.4 °F 100% 30.05 in 2.0 mi Calm Calm - N/A Snow Light Snow
4:53 AM 28.4 °F - 28.4 °F 100% 30.05 in 2.0 mi Calm Calm - N/A Snow Light Snow
5:12 AM 28.4 °F - 28.4 °F 100% 30.05 in 1.5 mi Calm Calm - N/A Snow Light Snow
5:30 AM 28.4 °F - 28.4 °F 100% 30.05 in 1.2 mi Calm Calm - N/A Snow Light Snow
5:48 AM 28.4 °F - 28.4 °F 100% 30.05 in 2.5 mi Calm Calm - N/A Snow Light Snow
6:12 AM 28.4 °F - 28.4 °F 100% 30.04 in 1.8 mi Calm Calm - N/A Snow Light Snow
6:30 AM 28.4 °F - 28.4 °F 100% 30.04 in 2.0 mi Calm Calm - N/A Snow Light Snow
6:48 AM 28.4 °F - 28.4 °F 100% 30.03 in 2.0 mi Calm Calm - N/A Snow Light Snow
7:12 AM 28.4 °F - 28.4 °F 100% 30.03 in 4.0 mi Calm Calm - N/A Snow Light Snow
7:30 AM 28.4 °F - 28.4 °F 100% 30.03 in 5.0 mi Calm Calm - N/A Snow Light Snow
7:47 AM 28.4 °F - 28.4 °F 100% 30.03 in 10.0 mi Calm Calm - N/A   Overcast
8:12 AM 28.4 °F - 28.4 °F 100% 30.04 in 10.0 mi Calm Calm - N/A   Overcast
8:30 AM 28.4 °F - 28.4 °F 100% 30.05 in 10.0 mi Calm Calm - N/A   Overcast
8:48 AM 30.2 °F - 28.4 °F 93% 30.05 in 10.0 mi Calm Calm - N/A   Overcast
9:13 AM 30.2 °F - 28.4 °F 93% 30.06 in 10.0 mi Calm Calm - N/A   Overcast
9:31 AM 30.2 °F - 28.4 °F 93% 30.06 in 10.0 mi Calm Calm - N/A   Overcast
9:49 AM 30.2 °F - 28.4 °F 93% 30.07 in 10.0 mi Calm Calm - N/A   Overcast
10:12 AM 30.2 °F - 30.2 °F 100% 30.07 in 10.0 mi Calm Calm - N/A   Overcast
10:30 AM 30.2 °F - 28.4 °F 93% 30.06 in 10.0 mi Calm Calm - N/A   Overcast
10:48 AM 30.2 °F - 28.4 °F 93% 30.05 in 10.0 mi Calm Calm - N/A   Overcast
11:12 AM 32.0 °F - 30.2 °F 93% 30.04 in 10.0 mi Calm Calm - N/A   Overcast
11:30 AM 32.0 °F - 30.2 °F 93% 30.04 in 10.0 mi Calm Calm - N/A   Overcast
11:48 AM 32.0 °F - 28.4 °F 87% 30.03 in 10.0 mi Calm Calm - N/A   Overcast
12:12 PM 32.0 °F - 30.2 °F 93% 30.01 in 10.0 mi Calm Calm - N/A   Overcast
12:30 PM 32.0 °F - 30.2 °F 93% 30.00 in 10.0 mi Calm Calm - N/A   Overcast
12:48 PM 32.0 °F - 30.2 °F 93% 29.99 in 10.0 mi Calm Calm - N/A   Mostly Cloudy
1:12 PM 33.8 °F - 32.0 °F 93% 29.97 in 10.0 mi Calm Calm - N/A   Mostly Cloudy
1:30 PM 33.8 °F 30.8 °F 32.0 °F 93% 29.97 in 10.0 mi East 3.5 mph - N/A   Overcast
1:48 PM 33.8 °F - 30.2 °F 87% 29.97 in 10.0 mi Calm Calm - N/A   Mostly Cloudy
2:12 PM 33.8 °F 30.8 °F 30.2 °F 87% 29.97 in 10.0 mi SE 3.5 mph - N/A   Clear
2:30 PM 33.8 °F - 30.2 °F 87% 29.97 in 10.0 mi Calm Calm - N/A   Clear
2:48 PM 33.8 °F - 30.2 °F 87% 29.96 in 10.0 mi Calm Calm - N/A   Clear
3:11 PM 33.8 °F - 32.0 °F 93% 29.97 in 10.0 mi Calm Calm - N/A   Clear
3:29 PM 33.8 °F - 32.0 °F 93% 29.96 in 10.0 mi Calm Calm - N/A   Clear
3:53 PM 33.8 °F - 32.0 °F 93% 29.96 in 10.0 mi Calm Calm - N/A   Clear
4:12 PM 33.8 °F 29.6 °F 32.0 °F 93% 29.96 in 10.0 mi ESE 4.6 mph - N/A   Clear
4:30 PM 32.0 °F - 30.2 °F 93% 29.96 in 10.0 mi Calm Calm - N/A   Clear
4:48 PM 32.0 °F - 30.2 °F 93% 29.96 in 10.0 mi Calm Calm - N/A   Clear
5:12 PM 30.2 °F - 30.2 °F 100% 29.96 in 5.0 mi Calm Calm - N/A   Clear
5:30 PM 30.2 °F - 30.2 °F 100% 29.97 in 4.0 mi Calm Calm - N/A   Clear
5:48 PM 30.2 °F - 30.2 °F 100% 29.97 in 5.0 mi Calm Calm - N/A   Clear
6:12 PM 30.2 °F - 30.2 °F 100% 29.97 in 7.0 mi Calm Calm - N/A   Clear
6:30 PM 30.2 °F - 30.2 °F 100% 29.97 in 7.0 mi Calm Calm - N/A   Clear
6:48 PM 32.0 °F - 32.0 °F 100% 29.97 in 7.0 mi Calm Calm - N/A   Clear
7:12 PM 32.0 °F - 32.0 °F 100% 29.99 in 7.0 mi Calm Calm - N/A   Clear
7:30 PM 30.2 °F - 30.2 °F 100% 29.99 in 5.0 mi Calm Calm - N/A   Clear
8:12 PM 30.2 °F - 30.2 °F 100% 30.00 in 5.0 mi Calm Calm - N/A   Clear
8:30 PM 30.2 °F - 30.2 °F 100% 30.00 in 5.0 mi Calm Calm - N/A   Clear
8:48 PM 28.4 °F - 28.4 °F 100% 30.01 in 5.0 mi Calm Calm - N/A   Clear
9:29 PM 28.4 °F - 28.4 °F 100% 30.01 in 5.0 mi Calm Calm - N/A   Clear
9:53 PM 28.4 °F - 28.4 °F 100% 30.01 in 5.0 mi Calm Calm - N/A   Clear
10:12 PM 28.4 °F - 28.4 °F 100% 30.01 in 5.0 mi Calm Calm - N/A   Clear
10:30 PM 28.4 °F - 28.4 °F 100% 30.01 in 7.0 mi Calm Calm - N/A   Clear
10:47 PM 26.6 °F 21.2 °F 24.8 °F 93% 30.02 in 7.0 mi North 4.6 mph - N/A   Clear
11:12 PM 28.4 °F 24.6 °F 28.4 °F 100% 30.03 in 10.0 mi WNW 3.5 mph - N/A   Clear
11:30 PM 30.2 °F 26.7 °F 26.6 °F 86% 30.02 in 10.0 mi NW 3.5 mph - N/A   Clear
11:48 PM 28.4 °F 23.3 °F 26.6 °F 93% 30.03 in 10.0 mi North 4.6 mph - N/A   Clear